Showing default

USA 76, 21808

Orbit data source: Space-Track

USA 76, 21808 is an American payload satellite in LEO that was launched on Fri, 08 Nov 1991 UTC via a TITAN 403A launch vehicle from the Air Force Western Test Range (AFWTR). Payloads include a variety of satellites, spacecraft, and rockets equipped with specific instruments for various scientific and technological missions. These include communications satellites like Starlink; space stations such as the ISS; scientific satellites like the Hubble; Earth observation satellites from companies like Planet Labs, Umbra, and HawkEye 360; GPS; miniature CubeSats for education and research; and military/defense satellites.

Loading next visibility...
USA 76 details
Identifier
21808, 1991-076D
Orbit
LEO
Last TLE update11 hours ago
Origin
Flag of USNRO/NRL (US)
ManufacturerNRL
MissionDefense Sigint
Bus & MotorNOSS B SSU, Unknown motor
Mass~400 kg wet, ~400 kg dry
Launch date (UTC)
1991-11-08 (33 years ago)
Launch vehicle
TITAN 403A
Launch site
Air Force Western Test Range (AFWTR)
Object type
Payload
Rocket body
Debris
Shape & HBRCyl, 1 m
Radar Cross Section1.178 m², Large (>1 m²)

Expand to show TLE details & history

TLE from 11 hours ago
0 USA 76
1 21808U 91076D   24361.11083228  .00005811  00000-0  54565-3 0  9996
2 21808  63.3025 148.7826 0895669  64.6375 304.4638 13.52460769 33052
Epoch: 2024-12-26T02:39Z
Definitive object data (Epoch: 2024-12-26T02:39:35.908Z)
Latitude-0.00003°
Longitude13.78804°
Altitude731.488 km
Speed7.656 km/s
True Right ascension09h 55m 07s
True Declination0° 00' 00"
Sunlit
Object was in full shadow at TLE epoch
Visualization TLE readout
Latitude1.39093°
Longitude13.3073°
Altitude716.582 km
Speed7.671 km/s
Apparent Right ascension06h 59m 12s
Apparent Declination-39° 24' 43"
Sunlit
Object is in full shadow
Visualization observer readout
Local Sidereal Time12:40:30
Azimuth235.595° WSW
Elevation-21.045°
Doppler factor1
Orbital elements
Apogee altitude1,728.436 km
Perigee altitude395.648 km
Semi-major axis7,440.179 km
Eccentricity0.0895669
Inclination63.3025°
RAAN148.7826°
Arg. of periapsis64.6375°
True anomaly295.46828°
Mean anomaly304.4638°
Eccentric anomaly300.02044°
Mean motion3.38196 °/min
BSTAR0.00054565
Orbital period106.45 mins
Loading maneuver chart data...
Loading historical data...
Loading historical data...
Loading historical data...
Loading historical data...
Loading historical data...
Loading historical data...
Loading historical data...

USA 76 Visibility forecast

Observer location: undefined°, undefined

Span
Click to sort rows by Start time (UTC) header in descending order
Start Az.
Max El. time (UTC)
Max El. Az.
Max El.
End time (UTC)
End Az.
4 mins2024-12-26 19:07:50.905Z26.555° NE2024-12-26 19:08:50.905Z42.256° NE15.639°2024-12-26 19:11:50.905Z80.661° E
9 mins2024-12-26 20:55:50.905Z317.168° NNW2024-12-26 20:58:50.905Z244.691° WSW43.299°2024-12-26 21:04:50.905Z155.926° SSE
4 mins2024-12-27 12:33:50.905Z263.183° W2024-12-27 12:35:50.905Z321.513° NNW23.977°2024-12-27 12:37:50.905Z6.963° NNE
|